Volver al catálogo

CZ-6A DEB

ActivoSSO
NORAD 54451·DEBRIS·🇨🇳 China

Lanzado Nov 11, 2022 desde Taiyuan Satellite Launch Center

Loading…

Próximos Pases (próximas 24 horas)

TLE

ActualizadoSource: Space-Track

Época: Sep 14, 2026, 02:23 UTC

1 54451U 22151GB  26257.09995503  .00001652  00000-0  58670-3 0  9995
2 54451  98.9054 320.8355 0072362 225.2595 134.2685 14.34372235199936

Sigue CZ-6A DEB en tiempo real con AllMySat

Download on the App Store